Alexandria, Egypt

8:52 PM EET on October 19, 2017 (GMT +0200)
Alexandria

Weather History for 62318 - February, 2013

Change the Weather History Date:

Friday, February 22, 2013

  Actual Average Record
Temperature  
Mean Temperature 65 °F -  
Max Temperature 75 °F 66 °F - ()
Min Temperature 55 °F 50 °F - ()
Growing Degree Days 15 (Base 50)    
Moisture  
Dew Point 49 °F    
Average Humidity 61    
Maximum Humidity 82    
Minimum Humidity 27    
Precipitation  
Precipitation 0.00 in 0.02 in - ()
Sea Level Pressure  
Sea Level Pressure 29.78 in    
Wind  
Wind Speed 9 mph ()    
Max Wind Speed 18 mph    
Max Gust Speed -    
Visibility 4.6 miles    
Events      
T = Trace of Precipitation, MM = Missing Value Source: Averaged Metar Reports

Daily Weather History Graph

Daily Weather History Graph

Search for Another Location

Airport or City:

Trip Planner

Search our weather history database for the weather conditions in past years. The results will help you decide how hot, cold, wet, or windy it might be!

Date:

Astronomy

Feb. 22, 2013 Rise Set
Actual Time 6:34 AM EET 5:53 PM EET
Civil Twilight 6:10 AM EET 6:17 PM EET
Nautical Twilight 5:41 AM EET 6:45 PM EET
Astronomical Twilight 5:13 AM EET 7:14 PM EET
Moon 2:53 PM EET (2/22) 3:57 AM EET (2/22)
Length of Visible Light 12h 07m
Length of Day
11h 18m
Waxing Gibbous, 88% of the Moon is Illuminated
Feb 22
Waxing Gibbous
Feb 25
Full
Mar 4
Last Quarter
Mar 11
New
Mar 19
First Quarter

Hourly Weather History & Observations

Time (EET) Temp. Dew Point Humidity Pressure Visibility Wind Dir Wind Speed Gust Speed Precip Events Conditions
12:00 AM 57.2 °F 50.0 °F 77% 29.89 in - East 4.6 mph - N/A   Clear
1:00 AM 57.2 °F 50.0 °F 77% 29.86 in - East 11.5 mph - N/A   Clear
2:00 AM 57 °F 48 °F 64% 29.85 in 6 mi East 8.1 mph - -  
2:00 AM 57.2 °F 48.2 °F 72% 29.83 in - East 6.9 mph - N/A   Clear
3:00 AM 57.2 °F 48.2 °F 72% 29.83 in - East 5.8 mph - N/A   Clear
4:00 AM 55.4 °F 48.2 °F 77% 29.83 in - East 6.9 mph - N/A   Clear
5:00 AM 57.2 °F 50.0 °F 77% 29.80 in - East 8.1 mph - N/A   Clear
6:00 AM 55.4 °F 50.0 °F 82% 29.80 in - ESE 8.1 mph - N/A   Clear
7:00 AM 55.4 °F 50.0 °F 82% 29.77 in - East 11.5 mph - N/A   Clear
8:00 AM 57 °F 48 °F 63% 29.74 in 6 mi ESE 11.5 mph - -   Partly Cloudy
8:00 AM 57.2 °F 48.2 °F 72% 29.74 in 6.2 mi ESE 11.5 mph - N/A   Scattered Clouds
9:00 AM 59.0 °F 48.2 °F 67% 29.71 in 6.2 mi ESE 13.8 mph - N/A   Partly Cloudy
10:00 AM 64.4 °F 46.4 °F 52% 29.74 in 3.7 mi SSE 8.1 mph - N/A   Unknown
11:00 AM 69.8 °F 46.4 °F 43% 29.71 in 3.7 mi South 9.2 mph - N/A   Unknown
12:00 PM 75.2 °F 39.2 °F 27% 29.71 in 3.7 mi SW 18.4 mph - N/A   Unknown
1:00 PM 71.6 °F 46.4 °F 41% 29.71 in 3.7 mi West 18.4 mph - N/A   Unknown
2:00 PM 72 °F 47 °F 30% 29.70 in 4 mi West 15.0 mph - -   Blowing Sand
2:00 PM 71.6 °F 46.4 °F 41% 29.71 in 3.7 mi West 15.0 mph - N/A   Unknown
3:00 PM 69.8 °F 48.2 °F 46% 29.71 in 3.7 mi West 15.0 mph - N/A   Unknown
4:00 PM 69.8 °F 48.2 °F 46% 29.71 in 3.7 mi WNW 13.8 mph - N/A   Unknown
5:00 PM 68.0 °F 46.4 °F 46% 29.71 in 3.7 mi WNW 15.0 mph - N/A   Unknown
6:00 PM 64.4 °F 53.6 °F 68% 29.74 in - West 8.1 mph - N/A   Clear
7:00 PM 64.4 °F 53.6 °F 68% 29.77 in - West 5.8 mph - N/A   Clear
8:00 PM 65 °F 53 °F 55% 29.81 in 6 mi West 12.7 mph - -  
8:00 PM 64.4 °F 53.6 °F 68% 29.80 in - West 12.7 mph - N/A   Clear
9:00 PM 64.4 °F 51.8 °F 64% 29.83 in - West 10.4 mph - N/A   Clear
10:00 PM 62.6 °F 53.6 °F 72% 29.86 in - West 12.7 mph - N/A   Clear
11:00 PM 62.6 °F 51.8 °F 68% 29.86 in - West 11.5 mph - N/A   Clear